Vorticity
nan nan nan nan nan nan nan nan nan nan nan nan nan nan nan nan nan nan nan nan nan nan nan nan nan nan nan nan nan nan nan nan nan nan nan nan nan nan nan nan nan nan nan nan nan nan nan nan nan
nan 5 3 7 4 3 12 11 8 6 7 4 1 6 6 14 17 13 13 8 3 4 4 7 8 6 6 6 4 4 5 4 4 5 5 5 5 5 6 5 6 7 6 6 7 6 6 5 nan
nan 3 8 6 3 4 15 4 6 4 7 6 7 8 5 17 8 9 12 6 4 4 6 9 8 7 5 5 5 5 5 5 5 5 6 5 5 5 5 6 6 5 5 5 5 6 5 4 nan
nan 2 6 6 11 14 8 7 4 2 11 15 9 11 14 7 6 18 10 3 5 5 7 9 6 5 6 6 6 6 5 6 7 6 5 6 5 6 5 6 5 5 4 5 4 4 5 4 nan
nan 6 8 7 14 13 12 9 6 8 11 7 7 6 6 12 14 9 4 4 5 5 6 7 7 6 5 7 6 6 6 6 6 6 5 5 6 6 6 6 5 4 4 4 4 4 3 4 nan
nan 7 7 7 9 6 4 7 13 9 9 2 4 5 5 7 1 6 7 5 5 6 6 7 6 6 6 6 6 6 6 6 5 5 6 6 6 5 6 4 5 5 4 4 4 4 3 3 nan
nan 7 4 -1 5 12 7 14 11 6 3 5 3 0 7 4 8 7 5 6 5 5 5 4 7 7 6 5 7 5 6 5 5 6 6 5 4 6 5 4 4 4 4 3 3 3 3 4 nan
nan 3 5 10 4 3 6 13 8 11 9 9 -0 4 13 6 8 6 9 5 5 4 4 4 5 5 5 8 8 6 6 7 7 5 5 5 6 5 3 4 4 4 4 4 3 3 3 6 nan
nan 5 7 6 6 14 6 3 5 8 12 8 11 18 10 7 5 7 8 5 4 6 6 6 5 5 5 7 8 8 5 6 6 6 4 2 4 7 7 6 6 4 3 3 4 4 5 5 nan
nan 5 10 9 -1 8 17 5 1 4 3 14 19 11 7 5 2 6 8 8 5 7 5 5 6 6 5 6 5 6 5 5 6 6 6 6 6 9 9 11 9 5 4 6 6 6 11 3 nan
nan 8 7 9 8 5 6 4 3 6 8 13 7 6 5 4 3 6 5 7 9 9 5 8 6 7 4 3 4 5 7 7 8 8 7 6 7 8 8 9 9 9 9 8 10 13 12 4 nan
nan 7 5 16 14 7 7 2 12 12 17 12 7 5 5 3 4 6 5 8 10 10 7 7 5 5 5 5 7 6 6 6 8 10 6 6 8 8 9 9 8 6 9 8 9 13 10 5 nan
nan 10 12 3 13 8 12 5 6 11 14 9 8 5 4 4 6 6 8 8 6 6 13 9 5 6 9 5 5 7 7 8 8 8 7 5 8 8 7 8 9 8 7 8 10 9 9 8 nan
nan 1 9 9 12 11 -6 10 6 1 11 12 4 5 6 6 6 6 9 8 7 6 13 9 5 12 9 5 8 11 10 8 8 7 8 6 6 8 8 6 5 7 10 8 6 8 11 10 nan
nan 6 9 9 6 12 4 8 -0 -1 16 13 5 5 5 7 8 7 8 11 8 6 12 8 3 8 9 8 7 8 10 9 8 8 9 7 5 7 7 6 6 7 9 9 4 8 11 12 nan
nan 6 10 1 6 4 10 10 -1 6 6 13 14 7 7 6 8 8 9 9 8 8 9 6 5 5 6 6 6 5 6 8 8 9 9 8 6 6 7 7 7 11 9 8 8 5 8 8 nan
nan 7 5 8 11 5 9 16 13 0 4 3 12 14 6 7 9 9 8 8 8 9 9 8 7 6 6 6 6 6 7 7 8 9 9 8 8 7 6 6 8 10 9 10 7 8 7 6 nan
nan 7 5 6 2 8 1 9 17 3 7 14 5 11 14 8 10 10 5 6 8 9 9 8 8 7 7 6 7 6 7 8 10 9 11 7 7 7 7 7 10 9 9 7 9 8 8 8 nan
nan 5 8 12 9 5 14 15 3 5 -1 5 7 9 6 12 14 8 7 6 9 8 7 7 6 7 5 6 7 9 8 7 9 12 13 9 6 7 7 9 9 9 9 6 7 9 7 6 nan
nan 7 5 9 16 9 8 13 18 8 4 5 4 -0 8 12 9 9 8 7 9 7 5 6 7 8 5 7 5 8 8 9 10 9 12 11 7 7 5 10 9 7 6 6 7 8 7 8 nan
nan 4 9 17 20 2 2 8 17 10 7 8 6 7 18 13 2 7 11 9 8 7 5 6 7 7 6 5 4 6 6 10 8 10 13 14 13 10 9 7 6 5 5 7 9 8 7 7 nan
nan 7 3 9 17 12 6 6 4 13 11 17 26 24 15 5 4 11 8 7 10 7 6 7 8 7 5 5 6 6 7 8 10 10 11 12 11 10 12 9 7 5 6 11 9 8 9 9 nan
nan 5 9 10 7 15 10 10 7 9 10 13 17 19 20 17 13 6 7 4 9 14 9 6 5 5 8 5 7 5 10 9 9 12 10 6 7 7 12 14 9 7 9 10 10 9 7 6 nan
nan 9 13 16 3 11 11 3 11 12 12 11 6 5 4 14 26 16 8 8 19 16 6 10 7 5 8 5 2 10 8 11 11 10 9 9 9 6 7 10 14 12 11 11 9 10 9 8 nan
nan 15 15 8 10 11 9 9 10 10 10 9 7 6 5 5 10 28 21 6 7 13 8 10 11 13 9 10 6 7 7 5 9 8 6 7 9 7 6 10 9 8 8 8 10 10 10 10 nan
nan 11 6 7 7 14 15 11 14 13 9 8 10 12 8 7 7 12 18 18 7 4 8 5 7 10 10 11 8 3 7 2 5 9 6 5 7 7 8 7 7 11 10 7 8 8 8 8 nan
nan 12 11 8 10 12 7 6 16 11 8 9 9 11 14 10 8 8 13 12 8 7 10 5 3 7 15 11 7 7 5 7 9 7 6 8 9 11 10 10 9 7 7 8 7 7 8 9 nan
nan 1 7 13 14 6 11 11 9 6 8 5 9 7 8 10 8 8 13 11 13 13 13 10 15 14 10 9 9 11 6 5 6 6 9 11 12 9 9 10 9 8 8 9 8 7 10 8 nan
nan 10 12 14 7 7 9 11 16 8 8 12 9 8 7 8 7 7 8 11 14 13 12 14 17 19 12 8 9 10 9 6 6 8 8 11 9 8 11 8 8 7 8 8 8 10 12 10 nan
nan nan nan nan nan nan nan nan nan nan nan nan nan nan nan nan nan nan nan nan nan nan nan nan nan nan nan nan nan nan nan nan nan nan nan nan nan nan nan nan nan nan nan nan nan nan nan nan nan
CAPE
25 8 0 4 379 508 149 122 144 341 461 308 199 606 684 213 584 162 589 825 1344 1368 1941 2121 2591 2570 2271 2125 2107 1611 1583 1242 1562 1697 1809 1521 1567 1517 1541 1674 1568 1447 1315 1251 1003 1349 1591 1733 1789
15 498 84 21 162 110 170 279 313 360 348 310 316 147 393 129 271 199 726 689 918 1161 1316 1823 2616 2623 2237 2438 2298 2091 1521 1164 1360 1233 1415 1423 1355 1310 1514 1671 1566 1492 1268 1272 1387 1506 1276 1236 1418
785 224 47 172 421 223 197 257 232 364 369 516 412 518 236 168 201 272 578 850 736 969 1220 1678 2394 2555 1985 2021 2483 2271 1562 1192 1435 1610 1414 1471 1482 1615 1522 1618 1468 1432 1394 1201 872 617 962 1164 1094
1887 574 838 246 381 160 179 222 208 223 207 276 174 227 174 239 251 701 717 610 600 837 1350 2296 2112 1809 1792 1974 2197 2368 1856 1541 1481 1372 1417 1626 1323 1647 1549 1394 1690 1513 1500 1375 1256 1131 1057 1044 1032
1213 119 648 1472 115 97 106 127 147 139 156 120 131 264 325 307 195 665 677 562 660 764 1407 1723 2373 2274 1695 1996 1825 1681 1495 1287 1317 1310 1277 1601 1505 1634 1394 1606 1665 1450 1427 1367 1179 1035 1018 1114 1197
61 301 569 281 114 151 97 104 48 17 101 85 158 219 138 203 128 358 856 925 840 882 1237 1296 1967 2251 1546 1903 1561 1598 1496 1449 1564 1501 1612 1762 1683 1637 1734 1542 1343 1231 1183 1201 1169 1054 984 1087 1363
50 0 87 293 82 115 165 116 20 0 94 118 141 93 32 59 74 396 784 770 652 677 544 763 1157 1037 1716 1463 1558 1470 1462 1559 1552 1599 1482 1061 1458 1910 1854 1462 1258 1066 1058 1127 1198 1257 1298 1384 1700
96 139 201 160 94 106 60 68 22 0 0 59 102 43 0 0 0 0 630 469 371 291 454 563 686 704 739 1015 1344 1435 1790 1411 1570 1588 1063 1432 1883 1769 1461 1875 1840 1156 1145 1196 1221 1333 1633 1944 2002
171 275 229 166 284 37 30 10 0 0 0 10 61 0 0 0 0 0 82 178 130 291 259 390 657 589 421 627 1159 1731 1475 1518 1850 1212 882 1906 1200 1112 1132 1536 1493 1392 1279 1290 1424 1893 2588 1382 226
331 329 334 147 56 72 31 3 7 6 5 2 0 0 0 0 0 0 6 35 15 66 213 208 268 313 302 630 842 920 1009 815 925 911 529 1009 901 741 971 1403 2444 1569 1509 1647 2492 2832 1937 77 17
75 422 451 117 100 130 29 20 74 26 12 0 0 0 0 0 0 0 0 0 0 7 114 14 24 95 145 193 310 410 518 499 279 268 602 627 791 800 948 1258 1609 1388 1760 1241 1378 1702 1390 165 5
433 501 378 72 248 50 50 32 92 1 0 0 0 0 0 0 0 0 0 0 0 5 7 3 0 0 30 42 117 342 479 371 63 359 457 310 714 976 782 911 613 399 379 721 774 621 472 214 22
626 176 220 49 80 62 145 210 85 15 5 0 0 0 0 0 0 0 0 0 0 0 0 6 9 0 26 35 32 229 429 119 60 153 687 566 633 301 651 330 860 837 864 470 1105 901 325 111 59
176 141 108 76 27 52 187 89 356 289 24 3 0 0 0 0 0 0 0 0 0 0 0 10 10 24 113 37 44 127 68 4 20 257 91 235 710 597 362 390 435 593 867 884 378 204 558 39 60
135 58 30 86 16 86 51 1 29 61 96 0 0 0 0 0 0 0 0 0 0 0 0 0 0 4 196 8 15 3 20 10 19 188 8 216 404 1083 597 547 448 453 842 596 539 1059 1469 548 434
87 14 0 28 11 41 141 32 2 28 94 244 0 0 0 0 0 0 0 0 0 0 0 0 0 0 240 23 3 118 0 0 0 207 186 89 293 455 827 683 1043 1358 645 414 481 530 1089 402 337
0 0 0 17 24 16 39 308 4 103 361 269 94 21 7 0 0 0 0 0 0 0 0 0 0 0 83 115 13 48 23 0 0 126 232 118 283 576 1673 1497 1517 1341 716 1410 731 767 1030 318 83
0 113 62 73 98 5 6 113 30 62 316 117 12 1 32 33 59 0 0 0 0 0 0 0 0 0 78 207 13 0 0 0 0 0 183 264 174 775 1218 1262 1894 1155 674 545 1019 985 622 212 60
251 117 275 281 134 134 126 501 268 141 0 27 0 2 109 83 56 52 0 0 0 0 0 0 0 0 30 64 175 0 0 0 0 44 122 535 561 1057 1936 1227 1008 97 0 0 580 888 605 140 43
82 59 29 93 78 257 78 90 351 30 1 4 31 90 109 266 295 233 16 0 0 0 0 0 0 115 18 14 0 0 0 0 0 20 202 844 1119 1422 1629 554 6 3 0 0 43 484 386 217 26
191 81 26 2 413 316 211 94 59 118 81 139 73 347 255 169 106 301 177 10 28 2 0 0 0 229 31 36 0 0 9 16 123 78 703 1101 1492 1618 1431 114 79 42 36 0 0 610 300 111 5
22 5 0 0 117 71 138 239 123 0 0 44 139 426 443 270 290 409 420 257 85 27 0 0 51 426 33 0 0 0 0 131 239 187 1424 1641 2106 2067 1294 476 333 65 0 0 143 448 118 0 0
0 3 0 1 29 11 95 0 0 69 0 12 0 82 206 492 540 526 206 203 379 348 57 10 40 309 140 120 40 0 72 95 1650 2005 1944 1972 1705 1329 1696 1406 387 197 464 649 330 277 77 0 0
24 32 129 0 1 6 8 14 0 167 19 0 0 19 205 506 615 495 374 219 414 698 727 135 157 283 188 152 470 236 539 716 714 654 810 784 1004 669 673 480 591 364 482 297 410 446 388 321 215
0 0 5 0 35 36 11 7 3 0 0 0 0 7 442 412 108 532 469 408 546 1024 1095 885 940 412 395 335 206 460 366 247 140 56 9 36 74 133 152 197 223 212 161 152 49 125 59 81 37
0 0 0 3 2 0 5 0 9 0 0 0 0 4 432 220 234 634 828 809 601 1126 742 567 444 1446 861 636 287 339 91 1 205 30 0 0 18 70 59 43 45 78 89 63 42 9 9 1 2
0 0 0 0 0 0 0 0 0 0 0 0 0 0 104 442 432 488 1049 1011 1064 594 666 680 184 64 1464 1289 282 52 8 30 5 2 0 5 6 1 43 5 7 27 17 20 6 5 28 22 55
0 0 0 0 0 0 0 0 0 0 0 0 0 0 0 448 514 413 595 1039 890 725 192 233 1455 1852 1754 878 845 188 231 106 54 94 1 0 0 0 90 39 13 0 0 0 0 7 2 1 0
0 0 0 0 0 0 0 0 0 0 0 0 0 46 298 730 735 833 1081 1452 1458 1648 1469 1453 1403 1103 846 755 718 442 320 203 170 3 0 0 0 3 14 5 0 0 0 0 0 1 0 0 0
0 0 0 0 0 0 0 0 0 0 0 0 44 36 1101 1208 1080 1087 1066 1183 1361 1277 913 772 584 844 1449 1069 883 588 401 159 1 18 6 0 0 0 8 14 0 0 0 0 0 0 0 0 0